Location: Santa Cristina
(46.5667°N, 11.7167°E)
Time: 06:18:07
(UTC+00:00)

NPP - Pass Details

Date: 21 April 2021
Orbit: 826 x 828 km, 98.7° (Epoch: 15 May)

Event Time Altitude Azimuth Distance (km) Brightness Sun altitude
Rises 01:48:38 0° 8° (N) 3,377 7.7 -21.8°
Reaches altitude 10° 01:51:06 10° 2° (N) 2,439 6.8 -21.5°
Maximum altitude 01:56:09 42° 293° (WNW) 1,159 4.2 -21.0°
Enters shadow 01:57:27 36° 258° (WSW) 1,284 4.2 -20.8°
